Wind_Speed
20 20 20 20 21 21 21 22 22 23 23 23 24 24 25 25 25 26 26 26 26 26 26 26 26 26 26 27 27 26 26 26 26 26 26 26 26 26
23 23 24 24 24 25 25 26 26 27 27 28 28 29 29 30 30 30 30 30 31 30 30 30 30 30 30 30 30 30 30 30 30 29 29 29 29 29
25 25 26 27 27 28 29 30 30 31 31 32 33 33 34 34 34 34 35 35 35 35 35 35 34 34 34 34 34 34 34 34 34 33 33 33 32 32
27 27 28 29 30 31 32 32 33 34 35 36 37 38 38 38 38 38 39 39 39 39 39 39 39 38 38 38 38 38 38 38 38 37 37 37 36 36
28 29 30 31 33 34 35 35 36 37 37 38 39 41 41 41 42 42 42 42 41 42 43 43 43 43 43 42 42 43 42 42 42 42 41 41 41 40
30 32 33 34 36 37 37 38 39 40 41 41 41 43 43 44 44 44 44 44 43 44 45 45 46 47 47 47 47 47 47 47 47 46 46 45 45 44
33 35 36 38 39 40 41 42 42 42 43 44 44 45 46 47 48 47 47 47 47 47 48 48 49 49 49 49 50 50 51 51 51 50 50 49 49 48
36 37 38 40 41 43 44 44 45 45 46 47 48 48 49 50 50 50 51 51 50 51 52 51 52 52 51 52 52 52 52 53 54 54 53 53 52 52
39 40 41 41 42 44 44 45 46 46 48 49 50 51 51 51 51 52 53 53 53 53 55 54 54 54 55 56 55 55 56 56 57 57 57 57 56 56
41 42 43 43 44 45 46 47 48 49 49 50 51 52 52 52 53 53 54 55 55 55 56 56 56 57 58 59 58 58 59 60 61 61 61 61 60 60
42 43 44 45 45 46 48 48 49 50 51 52 52 53 53 54 54 55 55 56 56 57 59 59 60 61 61 61 62 63 63 64 64 64 65 65 65 64
43 44 45 46 47 49 50 50 51 52 53 54 55 56 56 56 57 57 58 58 58 59 60 61 63 65 65 65 66 66 66 67 67 67 68 68 68 68
45 46 47 48 49 50 51 52 53 54 55 56 56 57 58 59 59 60 60 61 61 61 62 64 64 65 67 67 67 68 70 70 70 70 71 72 72 73
48 49 50 51 53 53 54 55 55 56 57 58 59 59 60 60 61 61 62 62 63 63 63 65 65 66 67 67 67 68 69 71 71 72 72 73 74 75
51 52 53 55 56 56 57 58 58 59 59 60 60 61 61 61 61 62 62 62 62 63 63 64 64 65 66 66 67 67 68 69 71 72 72 72 72 72
54 55 56 57 58 59 59 60 60 60 60 60 60 60 60 60 60 60 60 60 60 60 60 61 61 62 62 62 63 63 63 64 64 65 66 66 65 65
57 58 58 59 59 59 59 59 59 58 57 57 57 57 57 57 57 57 56 56 56 55 55 56 56 56 55 55 55 56 56 56 57 57 57 58 57 58
58 58 58 58 57 57 56 56 55 54 54 53 53 52 52 51 52 52 51 51 50 50 50 49 49 49 49 49 49 49 48 49 49 50 51 51 51 51
57 56 56 55 53 53 52 51 50 49 48 47 47 46 46 45 45 45 44 44 43 42 42 42 42 43 43 42 42 43 43 43 44 45 45 46 46 46
53 52 51 49 48 47 45 44 43 42 42 41 40 39 38 38 37 37 37 36 36 36 36 37 38 38 37 36 35 36 39 40 40 41 41 42 43 43
48 47 45 44 42 41 40 39 38 37 37 36 34 33 33 32 32 31 31 31 32 32 32 32 33 34 34 33 32 32 34 36 37 38 38 38 39 39
43 41 40 39 38 37 36 35 34 33 32 32 31 30 29 29 28 28 28 28 28 28 27 28 29 29 30 31 31 30 30 31 33 33 33 34 35 34
38 37 36 35 35 34 32 31 30 29 28 28 27 27 27 27 26 26 25 25 25 25 25 25 26 27 28 29 29 29 29 29 29 29 29 30 30 29
Wind_Direction
258 260 261 263 265 266 267 268 270 272 273 274 275 276 277 276 276 276 275 275 275 274 273 273 272 272 271 270 270 269 269 269 269 269 269 269 269 268
261 262 263 264 266 266 267 268 269 271 272 273 275 275 276 275 274 274 274 273 273 272 272 272 272 271 271 270 269 268 268 268 268 268 268 268 268 268
265 267 267 268 268 268 269 269 270 271 273 274 275 275 275 274 274 274 274 273 272 271 270 270 270 270 270 269 269 268 268 268 268 267 267 267 267 268
267 269 270 270 270 271 272 273 273 273 274 275 275 275 275 275 274 274 274 274 273 271 270 270 270 269 269 269 268 267 267 267 267 267 267 267 267 267
270 272 272 273 272 272 273 273 274 275 275 275 276 276 275 275 275 275 275 275 274 273 271 270 270 270 269 269 268 268 267 266 266 266 266 266 266 266
274 275 275 275 275 275 275 275 276 276 277 277 278 277 275 275 275 276 275 274 274 274 273 271 271 270 269 269 269 268 267 267 266 266 266 266 266 266
276 277 277 277 277 277 277 277 277 278 278 278 278 277 277 276 275 274 274 274 273 273 273 272 272 271 270 270 269 268 268 267 267 266 266 265 265 265
278 279 279 280 279 278 278 278 278 278 278 279 278 278 278 278 276 275 274 274 274 273 273 273 272 272 272 271 270 270 269 268 268 267 266 266 265 265
280 280 281 282 281 280 279 280 280 280 280 280 279 279 279 279 278 277 275 274 275 274 273 273 272 271 272 271 271 270 270 269 268 268 267 266 266 266
282 282 283 283 283 282 282 281 281 280 280 280 280 280 281 280 279 278 278 277 276 276 275 274 272 271 271 270 270 270 271 270 269 269 268 268 267 266
283 282 282 282 282 281 282 282 282 282 281 281 281 281 281 280 280 280 279 279 278 277 276 275 273 272 272 272 271 271 271 270 270 270 270 269 268 267
283 283 283 283 283 283 283 283 283 283 283 283 282 282 282 281 281 281 280 280 280 279 278 277 276 274 273 273 273 272 272 271 271 271 270 270 269 269
284 284 284 284 284 284 284 283 283 283 283 283 283 282 282 282 282 282 282 281 281 281 280 279 278 277 275 274 273 273 272 273 273 272 271 270 270 269
285 285 285 285 285 284 284 284 284 284 284 285 284 284 284 283 283 283 283 283 283 282 282 281 280 279 277 275 275 274 274 274 274 273 272 271 269 268
286 285 285 285 285 285 285 285 285 285 285 285 284 284 284 284 284 283 283 283 282 282 282 281 281 280 279 278 277 276 275 275 275 275 274 273 272 270
287 287 287 287 287 286 286 286 286 286 286 285 285 285 284 284 284 283 283 283 283 282 282 281 281 281 280 280 279 278 277 277 277 276 276 275 274 272
291 291 290 290 289 289 288 288 287 287 286 285 285 284 284 284 283 283 282 282 282 282 281 282 282 282 282 282 281 281 279 278 278 277 276 275 273 272
294 293 293 292 292 291 290 290 289 288 287 286 285 285 285 284 283 282 282 282 282 282 282 281 281 281 281 282 283 282 280 279 279 278 278 277 275 272
295 295 294 294 293 293 292 291 290 289 288 287 286 286 285 285 284 283 283 283 283 283 283 282 282 282 282 281 282 282 282 282 281 280 280 278 277 274
297 297 296 296 295 295 294 292 291 289 289 288 287 286 286 286 286 285 284 284 284 284 284 284 285 285 285 285 284 283 283 284 283 283 281 280 279 277
299 298 298 297 296 295 294 293 291 290 289 288 288 287 288 288 288 287 287 287 286 286 287 287 287 287 288 289 289 288 286 286 287 286 284 282 281 279
300 300 299 298 297 296 294 293 292 291 289 289 288 288 289 290 291 291 292 291 290 290 291 291 290 290 291 292 293 292 290 290 291 290 289 287 285 283
301 301 301 300 298 297 296 295 293 291 290 290 289 289 291 292 293 294 294 294 294 294 294 294 294 293 294 296 296 296 294 293 293 293 292 291 290 288
Height
5872 5872 5872 5872 5872 5872 5872 5871 5871 5870 5870 5869 5868 5867 5866 5866 5865 5864 5863 5863 5862 5861 5861 5860 5860 5859 5859 5858 5858 5858 5858 5858 5858 5857 5857 5857 5857 5858
5867 5867 5867 5867 5866 5866 5866 5865 5865 5864 5863 5862 5861 5860 5859 5858 5858 5857 5856 5855 5855 5854 5853 5853 5853 5852 5852 5851 5851 5851 5850 5850 5850 5850 5850 5850 5851 5851
5861 5861 5860 5860 5860 5859 5859 5858 5857 5857 5856 5854 5853 5852 5851 5850 5849 5848 5847 5847 5846 5846 5845 5844 5844 5844 5843 5843 5842 5842 5842 5842 5842 5842 5842 5842 5842 5843
5854 5854 5853 5853 5853 5852 5851 5850 5849 5848 5847 5846 5844 5843 5842 5841 5840 5839 5838 5837 5836 5835 5835 5835 5834 5834 5833 5833 5833 5833 5833 5832 5832 5832 5833 5833 5833 5833
5847 5846 5846 5845 5844 5843 5842 5841 5840 5839 5838 5836 5834 5833 5832 5830 5829 5828 5827 5826 5825 5824 5824 5824 5823 5823 5822 5822 5822 5822 5822 5822 5822 5822 5822 5822 5822 5823
5839 5838 5837 5836 5835 5834 5833 5832 5830 5828 5827 5825 5824 5822 5820 5819 5818 5817 5815 5814 5813 5812 5811 5811 5810 5810 5810 5810 5810 5810 5809 5809 5809 5809 5810 5810 5811 5811
5831 5829 5828 5827 5825 5824 5822 5821 5819 5817 5815 5814 5812 5810 5809 5807 5805 5804 5802 5801 5800 5799 5798 5797 5796 5796 5796 5796 5795 5796 5795 5795 5795 5796 5796 5797 5797 5798
5821 5819 5818 5816 5814 5812 5811 5809 5807 5805 5803 5801 5799 5797 5796 5793 5792 5790 5788 5788 5787 5786 5784 5783 5782 5781 5781 5780 5780 5780 5780 5780 5780 5780 5781 5782 5783 5784
5811 5809 5807 5805 5803 5801 5799 5797 5794 5792 5791 5788 5786 5784 5781 5779 5777 5775 5774 5772 5771 5770 5768 5768 5767 5765 5765 5764 5764 5764 5764 5764 5764 5764 5764 5765 5767 5768
5801 5798 5796 5793 5791 5788 5786 5784 5781 5779 5777 5774 5772 5769 5767 5764 5762 5760 5758 5757 5756 5754 5751 5751 5751 5749 5749 5748 5747 5747 5746 5746 5746 5746 5746 5747 5748 5750
5790 5787 5784 5782 5779 5776 5773 5770 5767 5765 5762 5759 5757 5754 5751 5748 5746 5744 5742 5740 5739 5737 5734 5733 5732 5731 5731 5730 5729 5728 5728 5727 5727 5727 5727 5728 5728 5729
5778 5775 5772 5769 5766 5763 5760 5756 5753 5750 5747 5744 5741 5738 5735 5732 5729 5726 5724 5722 5720 5719 5716 5713 5712 5710 5711 5711 5709 5708 5707 5707 5706 5706 5707 5707 5707 5707
5765 5762 5759 5756 5752 5749 5745 5742 5738 5734 5731 5727 5724 5720 5717 5714 5711 5708 5706 5703 5701 5699 5696 5693 5691 5689 5688 5689 5688 5686 5685 5684 5684 5684 5684 5685 5685 5685
5752 5748 5745 5741 5737 5734 5730 5726 5722 5718 5714 5711 5707 5703 5699 5696 5693 5690 5687 5684 5681 5679 5676 5672 5670 5668 5666 5666 5666 5664 5662 5661 5660 5660 5660 5660 5661 5661
5738 5734 5730 5726 5722 5718 5714 5709 5705 5701 5697 5693 5689 5685 5681 5678 5674 5671 5668 5665 5662 5659 5656 5653 5650 5647 5645 5644 5643 5642 5641 5639 5636 5635 5635 5634 5635 5635
5723 5719 5714 5710 5705 5700 5696 5692 5687 5683 5679 5674 5670 5666 5663 5659 5656 5652 5649 5646 5643 5640 5636 5633 5629 5627 5625 5623 5622 5621 5619 5617 5615 5613 5612 5611 5611 5610
5706 5701 5696 5691 5686 5681 5676 5672 5667 5663 5659 5655 5651 5648 5644 5641 5637 5634 5631 5627 5624 5622 5618 5615 5611 5609 5607 5605 5603 5601 5599 5597 5595 5593 5591 5590 5590 5589
5688 5683 5677 5672 5667 5662 5657 5652 5648 5644 5640 5637 5633 5629 5626 5623 5619 5616 5613 5610 5607 5605 5602 5599 5596 5594 5592 5589 5586 5584 5582 5580 5578 5575 5573 5571 5572 5571
5671 5665 5659 5654 5649 5644 5639 5635 5631 5626 5623 5619 5616 5612 5609 5606 5603 5600 5597 5595 5593 5590 5587 5585 5582 5579 5578 5577 5574 5569 5567 5565 5562 5560 5558 5555 5554 5554
5654 5648 5643 5638 5633 5628 5624 5619 5615 5612 5608 5605 5601 5598 5596 5593 5590 5587 5585 5583 5580 5578 5576 5573 5570 5567 5564 5563 5562 5559 5554 5551 5548 5546 5543 5541 5539 5537
5638 5632 5628 5623 5618 5614 5610 5606 5602 5599 5596 5593 5590 5587 5584 5582 5579 5577 5575 5572 5570 5567 5565 5562 5559 5556 5553 5551 5549 5548 5544 5539 5536 5532 5530 5527 5525 5523
5624 5619 5615 5610 5606 5602 5598 5595 5591 5588 5585 5583 5580 5577 5575 5573 5570 5568 5565 5563 5560 5558 5555 5553 5550 5547 5544 5541 5538 5536 5533 5530 5526 5522 5518 5515 5511 5509
5613 5608 5604 5600 5596 5592 5588 5585 5582 5579 5576 5574 5571 5569 5566 5564 5562 5559 5557 5554 5552 5549 5547 5544 5541 5538 5535 5532 5529 5526 5523 5519 5516 5512 5509 5505 5502 5499